Knox, IN

8:45 AM CDT on August 16, 2017 (GMT -0500)
Starke County

Weather History for KOXI - April, 2013

Change the Weather History Date:

Saturday, April 6, 2013

  Actual Average (KRCR) Record (KRCR)
Temperature  
Mean Temperature 50 °F -  
Max Temperature 68 °F 53 °F 62 °F (2015)
Min Temperature 32 °F 33 °F 30 °F (2014)
Degree Days  
Heating Degree Days 15    
Moisture  
Dew Point 29 °F    
Average Humidity 45    
Maximum Humidity 78    
Minimum Humidity 25    
Precipitation  
Precipitation 0.00 in - - ()
Sea Level Pressure  
Sea Level Pressure 29.94 in    
Wind  
Wind Speed 12 mph (SSE)    
Max Wind Speed 29 mph    
Max Gust Speed 40 mph    
Visibility 10 miles    
Events      
Averages and records for this station are not official NWS values.
T = Trace of Precipitation, MM = Missing Value Source: NWS Daily Summary

Daily Weather History Graph

Daily Weather History Graph

Search for Another Location

Airport or City:

Trip Planner

Search our weather history database for the weather conditions in past years. The results will help you decide how hot, cold, wet, or windy it might be!

Date:

Astronomy

Apr. 06, 2013 Rise Set
Actual Time 6:21 AM CDT 7:17 PM CDT
Civil Twilight 5:52 AM CDT 7:45 PM CDT
Nautical Twilight 5:19 AM CDT 8:19 PM CDT
Astronomical Twilight 4:44 AM CDT 8:54 PM CDT
Moon 4:06 AM CDT (4/6) 3:43 PM CDT (4/6)
Length of Visible Light 13h 52m
Length of Day
12h 56m
Waning Crescent, 15% of the Moon is Illuminated
Apr 6
Waning Crescent
Apr 10
New
Apr 18
First Quarter
Apr 25
Full
May 2
Last Quarter

Hourly Weather History & Observations

Time (CDT) Temp. Windchill Dew Point Humidity Pressure Visibility Wind Dir Wind Speed Gust Speed Precip Events Conditions
12:15 AM 32.5 °F 28.1 °F 25.5 °F 75% 30.14 in 10.0 mi East 4.6 mph - N/A   Overcast
12:35 AM 32.9 °F 27.5 °F 25.0 °F 73% 30.14 in 10.0 mi East 5.8 mph - N/A   Overcast
12:55 AM 32.7 °F 29.6 °F 24.1 °F 71% 30.15 in 10.0 mi NNE 3.5 mph - N/A   Mostly Cloudy
1:15 AM 32.2 °F 28.9 °F 23.9 °F 72% 30.15 in 10.0 mi NNE 3.5 mph - N/A   Scattered Clouds
1:35 AM 32.2 °F 28.9 °F 23.9 °F 72% 30.14 in 10.0 mi ENE 3.5 mph - N/A   Scattered Clouds
1:55 AM 32.5 °F - 24.1 °F 71% 30.14 in 10.0 mi Calm Calm - N/A   Clear
2:15 AM 32.2 °F - 24.4 °F 73% 30.15 in 10.0 mi Calm Calm - N/A   Clear
2:35 AM 32.0 °F 28.7 °F 24.6 °F 74% 30.13 in 10.0 mi NE 3.5 mph - N/A   Clear
2:55 AM 32.0 °F - 25.0 °F 75% 30.14 in 10.0 mi Calm Calm - N/A   Clear
3:15 AM 32.0 °F - 25.9 °F 78% 30.13 in 10.0 mi Calm Calm - N/A   Clear
3:35 AM 32.0 °F 28.7 °F 25.5 °F 77% 30.12 in 10.0 mi East 3.5 mph - N/A   Clear
3:55 AM 32.2 °F - 25.2 °F 75% 30.12 in 10.0 mi Calm Calm - N/A   Clear
4:15 AM 32.7 °F 29.6 °F 25.2 °F 74% 30.11 in 10.0 mi ESE 3.5 mph - N/A   Clear
4:35 AM 34.0 °F 27.2 °F 25.3 °F 71% 30.10 in 10.0 mi ESE 8.1 mph - N/A   Clear
4:55 AM 36.0 °F 29.0 °F 24.8 °F 64% 30.10 in 10.0 mi ESE 9.2 mph - N/A   Scattered Clouds
5:15 AM 37.0 °F 29.8 °F 24.6 °F 61% 30.09 in 10.0 mi ESE 10.4 mph - N/A   Clear
5:35 AM 37.8 °F 29.8 °F 24.4 °F 59% 30.09 in 10.0 mi ESE 12.7 mph - N/A   Scattered Clouds
5:55 AM 38.8 °F 31.6 °F 24.3 °F 56% 30.10 in 10.0 mi SE 11.5 mph - N/A   Mostly Cloudy
6:15 AM 39.2 °F 30.8 °F 23.9 °F 54% 30.09 in 10.0 mi SE 15.0 mph - N/A   Mostly Cloudy
6:35 AM 39.6 °F 31.7 °F 23.7 °F 53% 30.10 in 10.0 mi SE 13.8 mph - N/A   Scattered Clouds
6:55 AM 40.3 °F 32.2 °F 23.7 °F 52% 30.11 in 10.0 mi SE 15.0 mph - N/A   Mostly Cloudy
7:15 AM 40.8 °F 34.1 °F 23.9 °F 51% 30.12 in 10.0 mi SSE 11.5 mph - N/A   Mostly Cloudy
7:35 AM 41.2 °F 33.0 °F 24.4 °F 51% 30.11 in 10.0 mi SE 16.1 mph - N/A   Scattered Clouds
7:55 AM 41.5 °F 33.2 °F 24.6 °F 51% 30.10 in 10.0 mi SE 17.3 mph - N/A   Clear
8:15 AM 42.4 °F 33.8 °F 24.8 °F 50% 30.09 in 10.0 mi SE 19.6 mph - N/A   Clear
8:35 AM 43.3 °F 35.5 °F 24.8 °F 48% 30.08 in 10.0 mi SE 17.3 mph 24.2 mph N/A   Clear
8:55 AM 44.2 °F 36.4 °F 24.8 °F 46% 30.09 in 10.0 mi SSE 18.4 mph 26.5 mph N/A   Clear
9:15 AM 45.1 °F 37.1 °F 25.2 °F 46% 30.08 in 10.0 mi SSE 20.7 mph 26.5 mph N/A   Clear
9:35 AM 46.9 °F - 25.7 °F 44% 30.06 in 10.0 mi SSE 19.6 mph 28.8 mph N/A   Clear
9:55 AM 47.8 °F - 25.5 °F 42% 30.05 in 10.0 mi SSE 21.9 mph 28.8 mph N/A   Clear
10:15 AM 49.1 °F - 25.7 °F 40% 30.05 in 10.0 mi SSE 23.0 mph 28.8 mph N/A   Clear
10:35 AM 50.4 °F - 26.2 °F 39% 30.04 in 10.0 mi SSE 18.4 mph 26.5 mph N/A   Clear
10:55 AM 51.8 °F - 26.1 °F 37% 30.03 in 10.0 mi SSE 20.7 mph 33.4 mph N/A   Clear
11:15 AM 53.2 °F - 26.1 °F 35% 30.01 in 10.0 mi SSE 21.9 mph 34.5 mph N/A   Clear
11:35 AM 54.3 °F - 26.4 °F 34% 30.01 in 10.0 mi SSE 26.5 mph 32.2 mph N/A   Clear
11:55 AM 55.9 °F - 26.4 °F 32% 29.99 in 10.0 mi SSE 25.3 mph 32.2 mph N/A   Clear
12:15 PM 57.0 °F - 26.6 °F 31% 29.98 in 10.0 mi SSE 24.2 mph 32.2 mph N/A   Clear
12:35 PM 58.6 °F - 27.5 °F 30% 29.97 in 10.0 mi SSE 24.2 mph 33.4 mph N/A   Clear
12:55 PM 59.5 °F - 27.7 °F 30% 29.96 in 10.0 mi SSE 23.0 mph 29.9 mph N/A   Clear
1:15 PM 60.6 °F - 28.4 °F 29% 29.93 in 10.0 mi SSE 19.6 mph 27.6 mph N/A   Clear
1:35 PM 62.4 °F - 28.9 °F 28% 29.91 in 10.0 mi SSE 25.3 mph 32.2 mph N/A   Clear
1:55 PM 62.8 °F - 29.1 °F 28% 29.89 in 10.0 mi SSE 24.2 mph 33.4 mph N/A   Clear
2:15 PM 63.9 °F - 29.7 °F 28% 29.88 in 10.0 mi SSE 27.6 mph 34.5 mph N/A   Clear
2:35 PM 65.1 °F - 30.2 °F 27% 29.85 in 10.0 mi SSE 28.8 mph 35.7 mph N/A   Clear
2:55 PM 64.8 °F - 30.6 °F 28% 29.83 in 10.0 mi SSE 24.2 mph 34.5 mph N/A   Clear
3:15 PM 65.3 °F - 31.1 °F 28% 29.82 in 10.0 mi South 24.2 mph 33.4 mph N/A   Scattered Clouds
3:35 PM 65.7 °F - 31.5 °F 28% 29.80 in 10.0 mi South 24.2 mph 40.3 mph N/A   Clear
3:55 PM 67.3 °F - 31.8 °F 27% 29.78 in 10.0 mi South 25.3 mph 34.5 mph N/A   Clear
4:15 PM 68.4 °F - 32.0 °F 26% 29.78 in 10.0 mi South 23.0 mph 31.1 mph N/A   Clear
4:35 PM 67.8 °F - 32.0 °F 26% 29.77 in 10.0 mi South 25.3 mph 34.5 mph N/A   Clear
4:55 PM 68.9 °F - 32.0 °F 25% 29.76 in 10.0 mi South 27.6 mph 35.7 mph N/A   Clear
5:15 PM 68.2 °F - 32.2 °F 26% 29.76 in 10.0 mi South 28.8 mph 35.7 mph N/A   Clear
5:35 PM 68.2 °F - 32.5 °F 27% 29.76 in 10.0 mi South 25.3 mph 33.4 mph N/A   Clear
5:55 PM 67.3 °F - 32.7 °F 28% 29.76 in 10.0 mi South 26.5 mph - N/A   Clear
6:15 PM 66.7 °F - 32.7 °F 28% 29.75 in 10.0 mi South 19.6 mph 27.6 mph N/A   Clear
6:35 PM 66.4 °F - 32.9 °F 29% 29.76 in 10.0 mi South 21.9 mph 27.6 mph N/A   Mostly Cloudy
7:15 PM 64.9 °F - 32.9 °F 30% 29.74 in 10.0 mi South 17.3 mph 25.3 mph N/A   Scattered Clouds
7:35 PM 64.4 °F - 33.3 °F 31% 29.73 in 10.0 mi SSE 17.3 mph - N/A   Mostly Cloudy
7:55 PM 62.4 °F - 33.6 °F 34% 29.73 in 10.0 mi SSE 16.1 mph - N/A   Overcast
8:15 PM 61.5 °F - 34.2 °F 36% 29.72 in 10.0 mi South 11.5 mph - N/A   Mostly Cloudy
8:35 PM 61.5 °F - 34.9 °F 37% 29.73 in 10.0 mi South 11.5 mph - N/A   Overcast
8:55 PM 61.7 °F - 35.8 °F 38% 29.73 in 10.0 mi South 10.4 mph - N/A   Overcast
9:15 PM 61.3 °F - 36.7 °F 40% 29.73 in 10.0 mi SSE 9.2 mph - N/A   Overcast
9:35 PM 60.8 °F - 37.8 °F 42% 29.72 in 10.0 mi South 12.7 mph - N/A   Overcast
9:55 PM 61.9 °F - 37.8 °F 41% 29.72 in 10.0 mi South 16.1 mph 23.0 mph N/A   Overcast
10:15 PM 63.0 °F - 36.9 °F 38% 29.72 in 10.0 mi SSW 19.6 mph 27.6 mph N/A   Overcast
10:35 PM 62.4 °F - 37.9 °F 40% 29.71 in 10.0 mi SSW 19.6 mph 31.1 mph N/A   Overcast
10:55 PM 62.4 °F - 37.9 °F 40% 29.70 in 10.0 mi SSW 17.3 mph 31.1 mph N/A   Overcast
11:15 PM 60.4 °F - 39.9 °F 47% 29.68 in 10.0 mi South 19.6 mph 24.2 mph N/A   Overcast
11:35 PM 61.9 °F - 37.8 °F 41% 29.67 in 10.0 mi South 18.4 mph 32.2 mph N/A   Overcast
11:55 PM 62.6 °F - 36.3 °F 38% 29.66 in 10.0 mi SSW 24.2 mph 32.2 mph N/A   Overcast